Location: Boyd Lake Observing Site
(40.4253°N, 105.0442°W)
Time: 05:50:45
(UTC-06:00)

ISS - Visible Passes

Search period start: 26 April 2017 00:00
Search period end: 06 May 2017 00:00
Orbit: 400 x 409 km, 51.6° (Epoch: 26 April)

Date Brightness Start Highest point End Pass type
(mag) Time Alt. Az. Time Alt. Az. Time Alt. Az.
03 May -1.7 05:24:31 10° S 05:27:06 22° SE 05:29:40 10° E visible
04 May -1.1 04:33:48 10° SSE 04:34:55 11° SE 04:36:02 10° ESE visible
05 May -3.3 05:15:23 10° SW 05:18:34 55° SE 05:21:46 10° ENE visible
